DELTA 1 DEB, 21320

Orbit data source: Space-Track

DELTA 1 DEB, 21320 is space debris in SSO originally from a launch on Thu, 12 Jun 1975 UTC launched from the Air Force Western Test Range (AFWTR). Debris objects in space refer to the collection of defunct objects orbiting the Earth. Examples of debris include non-operational satellites, rocket bodies, and fragments generated from explosions, collisions, or faulty payload assembly.

Loading next visibility...
Identifier
21320, 1975-052AN
Orbit
SSO
Country
Flag of USUS
Related business
Manufacturer
Unknown
Mission
Spacecraft
Bus & Motor
Unknown
Mass
Unknown
Launch date (UTC)
1975-06-12 (50 years ago)
Launch vehicle
Unknown
Launch site
Air Force Western Test Range (AFWTR)
Object type
Payload
Rocket body
Debris
Shape & HBR
Unknown
Radar Cross Section
Small (<0.1 m²)

Expand to show TLE details & history
Last TLE update: 11 hours ago

TLE from 11 hours ago
0 DELTA 1 DEB
1 21320U 75052AN  25259.13175735  .00000346  00000-0  39373-3 0  9993
2 21320  99.5396 134.2924 0128555  97.6697  54.3430 13.73573707717935
Epoch: 2025-09-16T03:09Z
TLE epoch observation values (Epoch: 2025-09-16T03:09:43.835Z)
Latitude
26.4162°
Longitude
-83.7031°
Altitude
935.512 km
Speed
7.414 km/s
True Right ascension
21h 16m 13s
True Declination
26° 16' 58"
Sunlit
Object was in full shadow at epoch
Visualization orbit readout
Latitude
Unknown
Longitude
Unknown
Altitude
Unknown
Speed
Unknown
Apparent Right ascension
Unknown
Apparent Declination
Unknown
Sunlit
N/A
Visualization observer readout
Local Sidereal Time
06:37:45
Azimuth
Unknown
Elevation
Unknown
Doppler factor
Unknown
Orbital elements
Apogee altitude
1,078.674 km
Perigee altitude
889.385 km
Semi-major axis
7,362.167 km
Eccentricity
0.01286
Inclination
99.5396°
RAAN
134.2924°
Arg. of periapsis
97.6697°
True anomaly
55.55118°
Mean anomaly
54.343°
Eccentric anomaly
54.94596°
Mean motion
3.43585 °/min
Orbital period
104.78 mins
BSTAR
0.00039373
Loading maneuver chart data...
Computing Atmospheric mass density...
Loading historical data...
Loading historical data...
Loading historical data...
Loading historical data...
Loading historical data...
Loading historical data...
Loading historical data...

Documentation

Showing up to 5 results
|